Погода Ртищево

Погода Ртищево : погода сейчас, прогноз погоды и архив. Всё, что Вы хотите узнать о погоде Ртищево!

Хотите узнать прогноз погоды Ртищево? Тогда Вам сюда: Погода Ртищево

Поиск расширенной информации на нашем сайте:

Другие новости

Новости СМИ2

Главная страница сайта

Новости сайта

03.07.2017

Напоминаем, что на нашем специализированном сайте Метеоцентр.Азия вы можете получить высокодетализированные автоматические прогнозы погоды по пунктам России, СНГ и мира в авиационном формате (включающие направление и скорость ветра, видимость, явления погоды, количество и форму облачности, нижнюю и верхнюю границу облачности).


Погода Ртищево - сегодня

Время (UTC), дата Ветер
(°,м/с) 
Видим.   Явления Облачность Т
(°С)
Тd
(°С)
f(%) Тe
(°С)
Pmin
(гПа)
dP
(гПа)
Po
(мм)
O2
(г/м3)
Тmin Tmax R s Состояние
почвы
06 14.08.18 350 (С) 10 км    8/0 средняя 
[Ac trans]
+20.7 +10.4 52 +23  1014.2  742  276           
09 14.08.18 320 (СЗ) 10 км    4/3 600 м верхняя 
[Cu hum|Cc]
+24 +9.4 40 +25  1014.2  0.3  743  273           
12 14.08.18 310 (СЗ) 10 км    9/8 600 м верхняя 
[Cu med, cong|Ci fib]
+23.6 +10.5 44 +26  1014.1  -0.2  743  273           
18 14.08.18 320 (СЗ) 4000 м    ясно 
+13.5 +12.1 91 +19  1016.6  1.4  744  283           
21 14.08.18 350 (С) 4000 м    ясно 
+12 +11.3 95 +16  1017.5  0.7  744  285           
00 15.08.18 300 (СЗ) 4000 м    ясно 
+9.9 +9.8 99 +12  1018.6  0.8  745  288           
03 15.08.18 тихо ()   10 км    4/0 верхняя 
[Ci fib]
+12 +11.8 99 +16  1018.9  0.6  745  285  +8.8        сухая 
06 15.08.18 190 (Ю) 10 км    4/0 верхняя 
[Ci fib]
+23 +11.6 49 +26  1018.5  0.5  746  275           
09 15.08.18 260 (З) 10 км    1/0 средняя 
[Ac trans]
+26 +10.4 38 +28  1018.1  0.1  746  272           
12 15.08.18 190 (Ю) 10 км    3/3 600 м 
[Cu hum]
+27.3 +11.4 37 +30  1017.1  -0.8  745  271           
15 15.08.18 190 (Ю) 10 км    ясно 
+25.2 +14.3 51 +33  1016.7  -0.6  745  272    +27.7       
18 15.08.18 160 (Ю) 4000 м    ясно 
+15.3 +13.2 87 +22  1017.4  -0.2  744  281           
21 15.08.18 180 (Ю) 4000 м    ясно 
+16.6 +10.6 68 +19  1017.1  0.1  744  281           
00 16.08.18 160 (Ю) 4000 м    ясно 
+11.9 +10.4 91 +15  1017.3  -0.2  744  285           
06 16.08.18 210 (ЮЗ) 10 км    6/0 средняя, верхняя 
[Ac trans|Ci fib]
+24.7 +13.8 51 +32  1015.9  -0.3  744  272           
09 16.08.18 230 (ЮЗ) 10 км    8/0 средняя, верхняя 
[Ac cast|Ci fib]
+29.3 +13.6 38 +36  1015  -0.6  744  268           
12 16.08.18 200 (Ю) 10 км    9/6 600 м верхняя 
[Cu med, cong|Ci fib]
+28.1 +16.4 49 +40  1014.4  -0.6  743  268           
18 16.08.18 280 (З) 4000 м    4/0 средняя 
[Ac trans]
+17.7 +15.6 88 +29  1014.8  0.5  743  278           
21 16.08.18 360 (С) 4000 м    9/5 600 м кучево-дожд., средняя 
[Cb cap|Ac As]
+20.8 +14.7 68 +29  1015.7  1.1  744  275           
03 17.08.18 020 (С) 10 км    6/0 средняя 
[Ac trans]
+17.3 +15.3 88 +27  1016.5  0.8  744  279  +16.1        сухая 
06 17.08.18 010 (С) 10 км  в посл. час гроза{ливн. осадки}  10/5 600 м кучево-дожд., средняя 
[Cb cap|Ac As]
+17 +16.8 99 +29  1017.6  1.1  745  279           
09 17.08.18 020 (С) 10 км    10/6 600 м средняя 
[Sc|Ac und]
+20.7 +16.9 79 +33  1017.9  0.6  745  275           
12 17.08.18 020 (С) 10 км    10/4 600 м верхняя 
[Sc|Ci]
+21.6 +15.4 68 +31  1017.7  -0.2  745  275           
18 17.08.18 040 (СВ) 4000 м    ясно 
+16.4 +12.4 77 +22  1019.2  0.6  746  281           
21 17.08.18 020 (С) 4000 м    ясно 
+14.1 +11.9 87 +19  1019.8  0.4  746  284           
Время (UTC), дата Ветер
(°,м/с) 
Видим.   Явления Облачность Т
(°С)
Тd
(°С)
f(%) Тe
(°С)
Pmin
(гПа)
dP
(гПа)
Po
(мм)
O2
(г/м3)
Тmin Tmax R s Состояние
почвы

Для получения пояснительной информации подведите курсор к названию столбца.

ПОГОДА Ртищево - архив

Всё, что Вы хотите узнать о погоде Ртищево - удобно и подробно!

Выберите нужную дату (начиная с 1 января 2015* года) и нажмите кнопку "Найти".
Будут отображены архивные сводки погоды по пункту Ртищево, начиная с указанной даты.


Отображать данные в формате CSV (для использования в таблицах Excel)


Внимание! Наш архив погоды предназначен исключительно для личного некоммерческого использования в познавательных целях. Если Вам необходимы официальные справки о состоянии погоды (для производственных, юридических, коммерческих и т.п. целей), обращайтесь в органы Росгидромета.

*Примечание: данная дата относится к архиву по метеостанциям СССР (Россия, СНГ, Балтия).
Архив по метеостанциям Зарубежной Европы и Азии (кроме Китая) хранится 10 дней, по другим регионам земного шара (Китай, Африка, Америка, Австралия, Океания) - 1 день.

Ртищево - район местоположения метеостанции


Название, широта, долгота, высота метеостанции:
Ртищево 52.2°ш. 43.8°д. 213 м над ур. моря [Российская Федерация]

Дополнительная информация

В oтличие oт бoльшинства пoгoдных сайтoв мы публикуем пoдрoбную метеoинфoрмацию в детальнoм прoфессиoнальнoм фoрмате.

Характеристики температуры и влажнoсти вoздуха измеряются на высoте 2 м в тени вдали oт зданий и деревьев.
Скoрoсть ветра измеряется на высoте 10 м (на урoвне рoста челoвека скoрoсть ветра ниже в 1.5-2 раза). Если метеoстанция нахoдится в гoрoде или в лесу, тo скoрoсть ветра занижена на 2-4 м/с пo сравнению с oткрытым местoм. Скoрoсть ветра над акватoриями крупных рек и oзёр, а также на вершинах хoлмoв на 2-5 м/с выше, чем в oбычных услoвиях.
Атмoсфернoе давление в разных тoчках местнoсти мoжет значительнo oтличаться oт давления на метеoстанции, в зависимoсти oт услoвий рельефа (при пoдъёме на 10 м давление пoнижается примернo на 1 мм рт.ст.).